Weather History for Philadelphia Wings Airport, PA

Change the Weather History Date:

Tuesday, February 12, 2013

  Actual Average (KPNE) Record (KPNE)
Temperature  
Mean Temperature 39 °F -  
Max Temperature 46 °F 41 °F 69 °F (1999)
Min Temperature 32 °F 24 °F 7 °F (2014)
Degree Days  
Heating Degree Days 26    
Moisture  
Dew Point 28 °F    
Average Humidity 62    
Maximum Humidity 87    
Minimum Humidity 46    
Precipitation  
Precipitation 0.00 in - - ()
Sea Level Pressure  
Sea Level Pressure 29.90 in    
Wind  
Wind Speed 7 mph (WNW)    
Max Wind Speed 16 mph    
Max Gust Speed 28 mph    
Visibility 10 miles    
Events      
Averages and records for this station are not official NWS values.
T = Trace of Precipitation, MM = Missing Value Source: NWS Daily Summary

Daily Weather History Graph

Daily Weather History Graph

Search for Another Location

Airport:

Trip Planner

Search our weather history database for the weather conditions in past years. The results will help you decide how hot, cold, wet, or windy it might be!

Date:

Astronomy

Feb. 12, 2013 Rise Set
Actual Time 6:57 AM EST 5:33 PM EST
Civil Twilight 6:29 AM EST 6:01 PM EST
Nautical Twilight 5:57 AM EST 6:33 PM EST
Astronomical Twilight 5:26 AM EST 7:04 PM EST
Moon 7:53 AM EST (2/12) 8:32 PM EST (2/12)
Length of Visible Light 11h 31m
Length of Day
10h 35m
Waxing Crescent, 7% of the Moon is Illuminated
Feb 12
Waxing Crescent
Feb 17
First Quarter
Feb 25
Full
Mar 4
Last Quarter
Mar 11
New

Hourly Weather History & Observations

Time (EST) Temp. Windchill Dew Point Humidity Pressure Visibility Wind Dir Wind Speed Gust Speed Precip Events Conditions
12:15 AM 42.8 °F 38.6 °F 37.4 °F 81% 29.77 in 10.0 mi WNW 6.9 mph - N/A   Clear
12:35 AM 42.8 °F 40.1 °F 37.4 °F 81% 29.77 in 10.0 mi West 4.6 mph - N/A   Clear
12:55 AM 42.8 °F 41.1 °F 35.6 °F 76% 29.77 in 10.0 mi West 3.5 mph - N/A   Clear
1:15 AM 42.8 °F 40.1 °F 35.6 °F 76% 29.77 in 10.0 mi West 4.6 mph - N/A   Clear
1:35 AM 42.8 °F 37.5 °F 32.0 °F 66% 29.78 in 10.0 mi West 9.2 mph - N/A   Clear
1:55 AM 42.8 °F 38.6 °F 32.0 °F 66% 29.78 in 10.0 mi West 6.9 mph - N/A   Clear
2:15 AM 41.0 °F 37.1 °F 30.2 °F 65% 29.79 in 10.0 mi West 5.8 mph - N/A   Clear
2:35 AM 41.0 °F - 30.2 °F 65% 29.79 in 10.0 mi Calm Calm - N/A   Clear
2:55 AM 41.0 °F 37.1 °F 30.2 °F 65% 29.79 in 10.0 mi WNW 5.8 mph - N/A   Clear
3:15 AM 41.0 °F 36.4 °F 30.2 °F 65% 29.79 in 10.0 mi WNW 6.9 mph - N/A   Clear
3:35 AM 41.0 °F 35.8 °F 30.2 °F 65% 29.80 in 10.0 mi WNW 8.1 mph - N/A   Clear
3:55 AM 41.0 °F 38.0 °F 30.2 °F 65% 29.82 in 10.0 mi WNW 4.6 mph - N/A   Scattered Clouds
4:15 AM 41.0 °F 36.4 °F 30.2 °F 65% 29.81 in 10.0 mi WNW 6.9 mph - N/A   Overcast
4:35 AM 41.0 °F 33.9 °F 30.2 °F 65% 29.81 in 10.0 mi WNW 12.7 mph 19.6 mph N/A   Scattered Clouds
4:55 AM 41.0 °F 32.8 °F 28.4 °F 61% 29.83 in 10.0 mi WNW 16.1 mph 25.3 mph N/A   Clear
5:15 AM 41.0 °F 33.9 °F 28.4 °F 61% 29.84 in 10.0 mi NW 12.7 mph 21.9 mph N/A   Mostly Cloudy
5:35 AM 41.0 °F 33.5 °F 26.6 °F 57% 29.85 in 10.0 mi NW 13.8 mph 23.0 mph N/A   Overcast
5:55 AM 41.0 °F 35.2 °F 26.6 °F 57% 29.85 in 10.0 mi WNW 9.2 mph 19.6 mph N/A   Overcast
6:15 AM 41.0 °F 37.1 °F 26.6 °F 57% 29.85 in 10.0 mi WNW 5.8 mph - N/A   Overcast
6:35 AM 41.0 °F 35.8 °F 28.4 °F 61% 29.86 in 10.0 mi West 8.1 mph - N/A   Overcast
6:55 AM 41.0 °F 37.1 °F 28.4 °F 61% 29.87 in 10.0 mi West 5.8 mph - N/A   Overcast
7:15 AM 41.0 °F 39.0 °F 28.4 °F 61% 29.88 in 10.0 mi WNW 3.5 mph - N/A   Overcast
7:35 AM 41.0 °F 38.0 °F 28.4 °F 61% 29.90 in 10.0 mi West 4.6 mph - N/A   Overcast
7:55 AM 41.0 °F 35.2 °F 28.4 °F 61% 29.90 in 10.0 mi West 9.2 mph - N/A   Overcast
8:15 AM 41.0 °F 34.7 °F 28.4 °F 61% 29.91 in 10.0 mi WNW 10.4 mph - N/A   Overcast
8:35 AM 42.8 °F 39.3 °F 28.4 °F 57% 29.91 in 10.0 mi West 5.8 mph - N/A   Scattered Clouds
8:55 AM 42.8 °F 37.5 °F 28.4 °F 57% 29.91 in 10.0 mi West 9.2 mph - N/A   Scattered Clouds
9:15 AM 42.8 °F 37.0 °F 28.4 °F 57% 29.91 in 10.0 mi WNW 10.4 mph 19.6 mph N/A   Scattered Clouds
9:35 AM 44.6 °F 40.2 °F 28.4 °F 53% 29.92 in 10.0 mi WNW 8.1 mph 17.3 mph N/A   Scattered Clouds
9:55 AM 44.6 °F 38.4 °F 26.6 °F 49% 29.93 in 10.0 mi West 12.7 mph 21.9 mph N/A   Clear
10:15 AM 44.6 °F 38.8 °F 26.6 °F 49% 29.93 in 10.0 mi West 11.5 mph 23.0 mph N/A   Mostly Cloudy
10:35 AM 44.6 °F 38.1 °F 26.6 °F 49% 29.93 in 10.0 mi WNW 13.8 mph 21.9 mph N/A   Mostly Cloudy
10:55 AM 44.6 °F 38.1 °F 26.6 °F 49% 29.94 in 10.0 mi WNW 13.8 mph 20.7 mph N/A   Scattered Clouds
11:15 AM 44.6 °F 39.2 °F 26.6 °F 49% 29.95 in 10.0 mi WNW 10.4 mph 24.2 mph N/A   Clear
11:35 AM 44.6 °F 38.1 °F 26.6 °F 49% 29.95 in 10.0 mi WNW 13.8 mph 20.7 mph N/A   Scattered Clouds
11:55 AM 44.6 °F 39.7 °F 28.4 °F 53% 29.94 in 10.0 mi West 9.2 mph 21.9 mph N/A   Clear
12:15 PM 44.6 °F 38.1 °F 26.6 °F 49% 29.94 in 10.0 mi West 13.8 mph 23.0 mph N/A   Clear
12:35 PM 44.6 °F 37.8 °F 26.6 °F 49% 29.94 in 10.0 mi WNW 15.0 mph 24.2 mph N/A   Clear
12:55 PM 46.4 °F 40.7 °F 26.6 °F 46% 29.94 in 10.0 mi West 12.7 mph 20.7 mph N/A   Clear
1:15 PM 46.4 °F 40.7 °F 28.4 °F 50% 29.93 in 10.0 mi WNW 12.7 mph 21.9 mph N/A   Scattered Clouds
1:35 PM 46.4 °F 41.1 °F 26.6 °F 46% 29.94 in 10.0 mi NW 11.5 mph 21.9 mph N/A   Scattered Clouds
1:55 PM 44.6 °F 37.4 °F 26.6 °F 49% 29.93 in 10.0 mi WNW 16.1 mph 27.6 mph N/A   Clear
2:15 PM 44.6 °F 37.8 °F 26.6 °F 49% 29.91 in 10.0 mi WNW 15.0 mph 23.0 mph N/A   Clear
2:35 PM 44.6 °F 38.1 °F 26.6 °F 49% 29.91 in 10.0 mi West 13.8 mph 21.9 mph N/A   Clear
2:55 PM 44.6 °F 40.7 °F 26.6 °F 49% 29.90 in 10.0 mi NW 6.9 mph - N/A   Clear
3:15 PM 44.6 °F 39.7 °F 26.6 °F 49% 29.91 in 10.0 mi WNW 9.2 mph 17.3 mph N/A   Clear
3:35 PM 44.6 °F 40.2 °F 26.6 °F 49% 29.87 in 10.0 mi NNW 8.1 mph 16.1 mph N/A   Clear
3:55 PM 42.8 °F 37.5 °F 26.6 °F 53% 29.85 in 10.0 mi NW 9.2 mph - N/A   Clear
4:15 PM 42.8 °F 37.5 °F 26.6 °F 53% 29.88 in 10.0 mi NW 9.2 mph - N/A   Clear
4:35 PM 42.8 °F 37.5 °F 26.6 °F 53% 29.92 in 10.0 mi WNW 9.2 mph - N/A   Clear
4:55 PM 42.8 °F 38.0 °F 26.6 °F 53% 29.93 in 10.0 mi West 8.1 mph - N/A   Clear
5:15 PM 41.0 °F 36.4 °F 26.6 °F 57% 29.96 in 10.0 mi WNW 6.9 mph - N/A   Clear
5:35 PM 41.0 °F 35.8 °F 26.6 °F 57% 29.96 in 10.0 mi WNW 8.1 mph - N/A   Clear
5:55 PM 41.0 °F 36.4 °F 26.6 °F 57% 29.98 in 10.0 mi WNW 6.9 mph - N/A   Clear
6:15 PM 39.2 °F 35.0 °F 26.6 °F 61% 29.97 in 10.0 mi WNW 5.8 mph - N/A   Clear
6:35 PM 37.4 °F 32.8 °F 26.6 °F 65% 29.98 in 10.0 mi WNW 5.8 mph - N/A   Clear
6:55 PM 37.4 °F 34.9 °F 26.6 °F 65% 29.98 in 10.0 mi NW 3.5 mph - N/A   Clear
7:15 PM 37.4 °F 33.8 °F 26.6 °F 65% 29.98 in 10.0 mi NW 4.6 mph - N/A   Clear
7:35 PM 37.4 °F 33.8 °F 26.6 °F 65% 29.98 in 10.0 mi NW 4.6 mph - N/A   Clear
7:55 PM 37.4 °F 34.9 °F 26.6 °F 65% 29.96 in 10.0 mi NNW 3.5 mph - N/A   Clear
8:15 PM 35.6 °F - 26.6 °F 70% 29.96 in 10.0 mi Calm Calm - N/A   Clear
8:35 PM 35.6 °F - 26.6 °F 70% 29.95 in 10.0 mi Calm Calm - N/A   Clear
9:15 PM 33.8 °F - 26.6 °F 75% 29.94 in 10.0 mi Calm Calm - N/A   Clear
9:35 PM 32.0 °F - 26.6 °F 80% 29.93 in 10.0 mi Calm Calm - N/A   Clear
9:55 PM 32.0 °F - 26.6 °F 80% 29.93 in 10.0 mi Calm Calm - N/A   Clear
10:15 PM 32.0 °F - 26.6 °F 80% 29.95 in 10.0 mi Calm Calm - N/A   Clear
10:35 PM 32.0 °F - 26.6 °F 80% 29.95 in 10.0 mi Calm Calm - N/A   Clear
10:55 PM 32.0 °F - 28.4 °F 87% 29.96 in 10.0 mi Calm Calm - N/A   Clear
11:15 PM 32.0 °F - 28.4 °F 87% 29.95 in 10.0 mi Calm Calm - N/A   Clear
11:35 PM 32.0 °F - 28.4 °F 87% 29.96 in 10.0 mi Calm Calm - N/A   Clear
11:55 PM 32.0 °F - 28.4 °F 87% 29.96 in 10.0 mi Calm Calm - N/A   Clear